Location: R�serve Fauniques des Laurentides
(47.3100°N, 71.1900°W)
Time: 19:35:52
(UTC-04:00)

Cosmos 1674 - Visible Passes

Search period start: 22 August 2014 00:00
Search period end: 01 September 2014 00:00
Orbit: 514 x 544 km, 82.5° (Epoch: 21 August)

Date Brightness Start Highest point End Pass type
(mag) Time Alt. Az. Time Alt. Az. Time Alt. Az.
22 Aug 5.1 01:29:13 10° NNW 01:30:29 20° NNW 01:30:29 20° NNW visible
22 Aug 5.6 23:44:03 10° NE 23:44:19 11° NE 23:44:19 11° NE visible
23 Aug 5.2 01:18:22 10° NNW 01:19:35 19° NNW 01:19:35 19° NNW visible
24 Aug 5.3 01:07:32 10° NNW 01:08:42 19° NNW 01:08:42 19° NNW visible
25 Aug 5.3 00:56:42 10° NNW 00:57:49 18° NNW 00:57:49 18° NNW visible
26 Aug 5.4 00:45:52 10° NNW 00:46:56 18° NNW 00:46:56 18° NNW visible
27 Aug 5.4 00:35:01 10° N 00:36:04 18° NNW 00:36:04 18° NNW visible
28 Aug 5.5 00:24:11 10° N 00:25:12 18° N 00:25:12 18° N visible
29 Aug 5.5 00:13:21 10° N 00:14:20 17° N 00:14:20 17° N visible
30 Aug 5.5 00:02:30 10° N 00:03:29 17° N 00:03:29 17° N visible
30 Aug 5.5 23:51:40 10° N 23:52:38 17° N 23:52:38 17° N visible
31 Aug 5.5 23:40:49 10° N 23:41:47 17° N 23:41:47 17° N visible
